Grey Islet, British Columbia

9:08 PM PST on December 17, 2017 (GMT -0800)
Grey Islet

Weather History for CWEK - November, 2012

Change the Weather History Date:

Wednesday, November 7, 2012

  Actual Average Record
Temperature  
Mean Temperature 44 °F -  
Max Temperature 47 °F - - ()
Min Temperature 39 °F - - ()
Degree Days  
Heating Degree Days 22    
Moisture  
Dew Point 38 °F    
Average Humidity 85    
Maximum Humidity 94    
Minimum Humidity 76    
Precipitation  
Precipitation 0.08 in - - ()
Sea Level Pressure  
Sea Level Pressure 30.02 in    
Wind  
Wind Speed 7 mph ()    
Max Wind Speed 17 mph    
Max Gust Speed -    
T = Trace of Precipitation, MM = Missing Value Source: Averaged Metar Reports

Daily Weather History Graph

Daily Weather History Graph

Search for Another Location

Airport or City:

Trip Planner

Search our weather history database for the weather conditions in past years. The results will help you decide how hot, cold, wet, or windy it might be!

Date:

Astronomy

Nov. 07, 2012 Rise Set
Actual Time 7:58 AM PST 4:53 PM PST
Civil Twilight 7:19 AM PST 5:32 PM PST
Nautical Twilight 6:36 AM PST 6:15 PM PST
Astronomical Twilight 5:54 AM PST 6:57 PM PST
Moon No Moon Rise 2:04 PM PST (11/7)
Length of Visible Light 10h 13m
Length of Day
8h 55m
Last Quarter, 42% of the Moon is Illuminated
Nov 7
Last Quarter
Nov 13
New
Nov 20
First Quarter
Nov 28
Full
Dec 6
Last Quarter

Hourly Weather History & Observations

Time (PST) Temp. Windchill Dew Point Humidity Pressure Visibility Wind Dir Wind Speed Gust Speed Precip Events Conditions
12:00 AM 41.9 °F 36.3 °F 38.7 °F 88% 29.85 in - SSE 9.2 mph - 0.05 in   Unknown
1:00 AM 41.5 °F 33.2 °F 38.7 °F 89% 29.86 in - South 17.3 mph - 0.02 in   Unknown
3:00 AM 41.9 °F 40.0 °F 38.1 °F 86% 29.90 in - WSW 3.5 mph - N/A   Unknown
4:00 AM 43 °F - 38 °F 77% 29.91 in - South 5.8 mph - -  
4:00 AM 42.8 °F 39.3 °F 38.1 °F 84% 29.91 in - South 5.8 mph - N/A   Unknown
5:00 AM 42.6 °F 38.4 °F 38.7 °F 86% 29.91 in - SW 6.9 mph - 0.01 in   Unknown
6:00 AM 40.8 °F - 37.8 °F 89% 29.93 in - West 2.3 mph - 0.02 in   Unknown
7:00 AM 41.7 °F 37.3 °F 38.5 °F 88% 29.94 in - SSE 6.9 mph - N/A   Unknown
8:00 AM 41.5 °F 34.6 °F 38.1 °F 88% 29.96 in - SSE 12.7 mph - 0.01 in   Unknown
9:00 AM 41.4 °F 36.2 °F 37.6 °F 86% 29.98 in - ESE 8.1 mph - N/A   Unknown
10:00 AM 42 °F - 38 °F 81% 30.00 in - ESE 10.4 mph - -  
10:00 AM 41.9 °F 35.9 °F 38.1 °F 86% 30.00 in - ESE 10.4 mph - N/A   Unknown
11:00 AM 43.0 °F 37.7 °F 38.5 °F 84% 30.01 in - SE 9.2 mph - N/A   Unknown
12:00 PM 44.2 °F 41.0 °F 38.3 °F 80% 30.03 in - SSE 5.8 mph - N/A   Unknown
1:00 PM 44.4 °F 41.2 °F 38.3 °F 79% 30.04 in - ESE 5.8 mph - N/A   Unknown
2:00 PM 46.4 °F 45.2 °F 39.7 °F 78% 30.05 in - East 3.5 mph - N/A   Unknown
3:00 PM 44.6 °F 42.2 °F 38.8 °F 80% 30.06 in - ENE 4.6 mph - N/A   Unknown
4:00 PM 43 °F - 38 °F 76% 30.07 in - NE 4.6 mph - -  
4:00 PM 43.2 °F 40.5 °F 37.9 °F 82% 30.07 in - NE 4.6 mph - N/A   Unknown
5:00 PM 42.6 °F 39.0 °F 37.4 °F 82% 30.09 in - North 5.8 mph - N/A   Unknown
6:00 PM 42.3 °F 37.3 °F 38.3 °F 86% 30.10 in - NNE 8.1 mph - N/A   Unknown
7:00 PM 42.1 °F 37.1 °F 39.0 °F 89% 30.11 in - North 8.1 mph - N/A   Unknown
8:00 PM 41.2 °F 36.0 °F 38.7 °F 91% 30.12 in - NNE 8.1 mph - N/A   Unknown
9:00 PM 40.6 °F 34.8 °F 38.8 °F 93% 30.13 in - NNE 9.2 mph - N/A   Unknown
10:00 PM 40 °F - 38 °F 92% 30.14 in - NNE 15.0 mph - -  
10:00 PM 40.1 °F 32.0 °F 38.5 °F 94% 30.14 in - NNE 15.0 mph - N/A   Unknown
11:00 PM 39.9 °F 32.9 °F 37.9 °F 93% 30.15 in - North 11.5 mph - N/A   Unknown